{"data":{"norad_id":65756,"intl_designator":"2025-216Y","name":"STARLINK-35275","alt_names":[],"object_type":"PAYLOAD","status":"ACTIVE","operator":null,"country":"US","launch_date":"2025-09-25","launch_site_code":"AFETR","launch_vehicle":null,"mission":null,"orbit_class":"UNKNOWN","rcs_meters":null,"size_class":null,"mass_kg":null,"dimensions":null,"purposes":["comms"],"wikipedia_slug":null,"has_3d_model":false,"image_url":null,"decayed_at":null,"tle_current":{"epoch":"2026-09-20T01:39:32.956416Z","epoch_age_seconds":145880,"freshness":"FRESH","line1":"1 65756U 25216Y   26263.06913144  .00009247  00000+0  28446-3 0  9990","line2":"2 65756  53.1594 147.9050 0001655  96.5936 263.5255 15.34401729 56330","mean_motion":15.34401729,"eccentricity":0.0001655,"inclination_deg":53.1594,"raan_deg":147.905,"arg_perigee_deg":96.5936,"mean_anomaly_deg":263.5255,"bstar":0.00028446,"rev_number":5633,"period_min":93.847652331471,"perigee_km":461.5659430503,"apogee_km":463.83025946882,"semimajor_km":6840.8351012596,"source":"CELESTRAK","updated_at":"2026-09-21T09:00:35.711596Z"}}}